Terug naar catalogus

COSMOS 1867 COOLANT

ActiefLEO
NORAD 39638·DEBRIS·🇷🇺 Russia

Gelanceerd Jul 10, 1987 vanaf Baikonur Cosmodrome

Loading…

Volgende Passages (komende 24 uur)

TLE

VersSource: Space-Track

Epoch: Sep 13, 2026, 03:02 UTC

1 39638U 87060F   26256.12681756  .00000134  00000-0  84439-4 0  9997
2 39638  65.0076 128.6117 0018119 284.3210  75.5863 14.33630218650085

Volg COSMOS 1867 COOLANT in realtime met AllMySat

Download on the App Store